EICK

Cork Airport

Airport
ICAO code
EICK
IATA Code
ORK
Summary
ICAO Region
EUR
ICAO Territory
Location

Cork, County Cork

Serving
Cork
Elevation
502 ft
Coordinates
51° 50' 29" N , 8° 29' 28" W
KCC
Metar
EICK 040700Z 12021G31KT 4000 -RA FEW004 BKN006 BKN012 06/05 Q0996 NOSIG

Description

International airport serving Cork.

Climatology

Temperate Marine climate/Oceanic climate (Köppen climate classification Cfb). Moderately cool summer and comparatively warm winter with a temperature range of only 14°C. Prevailing south-westerly winds from the Atlantic Ocean.

Runways

Designator Length Width Surface Rops
7/25 1310 45 PEM Yes/Yes
17/35 2133 45 ASP Yes/Yes

SKYbrary Partners:

Safety knowledge contributed by: